Le nostre stazioni meteo in Italia

Pubblicità
Il mio iltempo24.it
Modena, Italia (16128): Temperatura & dewpoint: 16.01.2020 00:00:00 - 22.01.2020 00:00:00 (CET)Modena, Italia (16128): velocità del vento: 16.01.2020 00:00:00 - 22.01.2020 00:00:00 (CET)Modena, Italia (16128): direzione del vento: 16.01.2020 00:00:00 - 22.01.2020 00:00:00 (CET)Modena, Italia (16128): reduced air pressure: 16.01.2020 00:00:00 - 22.01.2020 00:00:00 (CET)Modena, Italia (16128): precipitazioni: 16.01.2020 00:00:00 - 22.01.2020 00:00:00 (CET)
Data & Tempo tt [°C] td [°C] ff [km/h] ff [kn] dd ppp [hPa] rr [mm]
22.01.2020 00:00:00 - - - - - - -
21.01.2020 23:00:00 3,4 -1,2 4 2 OSO 1040,2 0,0
21.01.2020 22:00:00 3,7 -0,9 8 4 O 1040,4 0,0
21.01.2020 21:00:00 4,6 -0,8 2 1 OSO 1040,5 0,0
21.01.2020 20:00:00 5,0 -1,0 0 0 NO 1040,7 0,0
21.01.2020 19:00:00 5,8 -1,6 - - - 1040,6 0,0
21.01.2020 18:00:00 6,4 -1,5 0 0 N 1040,5 0,0
21.01.2020 17:00:00 6,8 -1,9 - - - 1040,5 0,0
21.01.2020 16:00:00 7,3 -2,2 0 0 ONO 1041,0 0,0
21.01.2020 15:00:00 - - - - - - -
21.01.2020 14:00:00 8,0 -2,1 0 0 N 1041,8 0,0
21.01.2020 13:00:00 7,1 -1,8 3 1 NO 1043,0 0,0
21.01.2020 12:00:00 5,5 -1,2 3 1 ONO 1043,9 0,0
21.01.2020 11:00:00 4,0 -1,0 1 0 ONO 1044,4 0,0
21.01.2020 10:00:00 3,1 -1,5 6 3 O 1044,3 0,0
21.01.2020 09:00:00 1,9 - 8 5 O - -
21.01.2020 08:00:00 1,1 -1,6 1 0 O 1044,2 0,0
21.01.2020 07:00:00 1,0 -1,4 1 1 O 1044,2 0,0
21.01.2020 06:00:00 1,9 -1,4 8 4 SO 1044,0 0,0
21.01.2020 05:00:00 2,2 -1,2 10 6 SO 1044,4 0,0
21.01.2020 04:00:00 2,2 -1,2 8 4 OSO 1044,8 0,0
21.01.2020 03:00:00 1,9 -1,5 9 5 OSO 1045,3 0,0
21.01.2020 02:00:00 3,6 -2,6 3 1 ONO 1045,4 0,0
21.01.2020 01:00:00 2,6 -1,9 7 4 ONO 1045,5 0,0
21.01.2020 00:00:00 4,0 -1,2 1 1 NO 1045,5 0,0
20.01.2020 23:00:00 4,2 -1,2 2 1 SSE 1045,4 0,0
20.01.2020 22:00:00 4,4 -1,2 1 0 E 1044,9 0,0
20.01.2020 21:00:00 4,8 -1,2 2 1 NE 1044,6 0,0
20.01.2020 20:00:00 5,6 -1,3 5 3 NNE 1044,0 0,0
20.01.2020 19:00:00 6,5 -1,4 5 3 NE 1043,3 0,0
20.01.2020 18:00:00 7,1 -1,6 2 1 ENE 1042,7 0,0
20.01.2020 17:00:00 7,6 -1,6 10 5 ENE 1042,2 0,0
20.01.2020 16:00:00 8,3 -2,9 15 8 NE 1042,0 0,0
20.01.2020 15:00:00 8,6 -3,3 16 8 ENE 1041,7 0,0
20.01.2020 14:00:00 8,3 -2,4 18 10 ENE 1042,0 0,0
20.01.2020 13:00:00 - - - - - - -
20.01.2020 12:00:00 7,5 -1,0 2 1 NNE 1042,5 0,0
20.01.2020 11:00:00 5,5 -1,2 0 0 N 1042,6 0,0
20.01.2020 10:00:00 4,1 -0,1 0 0 ONO 1042,1 0,0
20.01.2020 09:00:00 3,5 -0,3 0 0 NNE 1041,2 0,0
20.01.2020 08:00:00 3,4 -0,1 0 0 ENE 1040,5 0,0
20.01.2020 07:00:00 3,3 0,4 0 0 N 1039,8 0,0
20.01.2020 06:00:00 3,3 0,7 0 0 N 1039,0 0,0
20.01.2020 05:00:00 3,1 1,3 0 0 NNO 1038,5 0,0
20.01.2020 04:00:00 3,4 1,4 - - - 1038,1 0,0
20.01.2020 03:00:00 3,1 1,8 0 0 ONO 1037,9 0,0
20.01.2020 02:00:00 3,7 1,9 5 3 O 1037,2 0,0
20.01.2020 01:00:00 4,1 2,3 2 1 OSO 1036,6 0,0
20.01.2020 00:00:00 4,2 2,2 6 3 ONO 1036,1 0,0
19.01.2020 23:00:00 4,4 2,6 2 1 O 1035,4 0,0
19.01.2020 22:00:00 4,7 2,7 9 5 O 1034,8 0,0
19.01.2020 21:00:00 4,9 2,6 9 5 ONO 1034,2 0,0
19.01.2020 20:00:00 5,0 3,3 10 6 ONO 1033,4 0,0
19.01.2020 19:00:00 5,7 4,2 7 4 ONO 1032,6 0,0
19.01.2020 18:00:00 - - - - - - -
19.01.2020 17:00:00 - - - - - - -
19.01.2020 16:00:00 - - - - - - -
19.01.2020 15:00:00 - - - - - - -
19.01.2020 14:00:00 9,1 0,0 6 4 NE 1028,9 0,0
19.01.2020 13:00:00 8,7 0,7 13 7 NE 1028,9 0,0
19.01.2020 12:00:00 8,1 2,1 9 5 NNE 1029,0 0,0
19.01.2020 11:00:00 6,3 4,9 1 1 N 1028,8 0,0
19.01.2020 10:00:00 5,3 4,6 4 2 NO 1028,2 0,0
19.01.2020 09:00:00 5,3 - - - - - -
19.01.2020 08:00:00 5,3 4,7 4 2 O 1026,8 0,0
19.01.2020 07:00:00 5,5 - - - - 1026,4 -
19.01.2020 06:00:00 5,7 5,0 1 0 ONO 1025,9 0,2
19.01.2020 05:00:00 6,0 5,3 0 0 NNO 1025,6 0,0
19.01.2020 04:00:00 5,8 5,1 0 0 NO 1025,5 0,0
19.01.2020 03:00:00 5,8 4,9 7 4 NO 1025,6 0,0
19.01.2020 02:00:00 6,2 5,3 3 2 SSE 1025,5 0,4
19.01.2020 01:00:00 6,3 5,4 0 0 NNO 1025,2 0,0
19.01.2020 00:00:00 5,9 5,0 0 0 NO 1025,0 0,0
18.01.2020 23:00:00 6,1 4,3 6 3 ONO 1024,8 0,0
18.01.2020 22:00:00 6,5 4,3 2 1 O 1024,7 0,0
18.01.2020 21:00:00 6,3 4,8 4 2 O 1024,6 0,0
18.01.2020 20:00:00 6,3 5,1 5 3 O 1024,3 0,0
18.01.2020 19:00:00 6,1 4,7 10 5 ONO 1024,4 0,0
18.01.2020 18:00:00 6,2 4,7 10 5 O 1024,3 0,0
18.01.2020 17:00:00 6,1 4,7 10 5 O 1023,9 0,0
18.01.2020 16:00:00 6,0 5,0 8 5 O 1023,6 0,2
18.01.2020 15:00:00 6,3 5,4 12 6 O 1023,6 0,4
18.01.2020 14:00:00 6,2 5,5 11 6 O 1023,6 0,2
18.01.2020 13:00:00 5,9 5,3 13 7 O 1023,8 0,2
18.01.2020 12:00:00 5,7 5,1 13 7 ONO 1024,3 0,6
18.01.2020 11:00:00 5,5 4,9 12 6 ONO 1024,7 1,8
18.01.2020 10:00:00 5,4 4,8 11 6 ONO 1024,4 3,0
18.01.2020 09:00:00 5,3 4,7 15 8 ONO 1023,9 2,2
18.01.2020 08:00:00 5,6 5,0 12 6 ONO 1023,5 1,8
18.01.2020 07:00:00 5,6 4,9 14 8 ONO 1022,8 0,8
18.01.2020 06:00:00 5,7 4,8 14 7 ONO 1022,3 0,4
18.01.2020 05:00:00 5,8 4,4 15 8 ONO 1021,9 0,0
18.01.2020 04:00:00 6,1 3,8 13 7 ONO 1021,7 0,0
18.01.2020 03:00:00 6,6 3,7 9 5 NO 1021,7 0,0
18.01.2020 02:00:00 7,6 3,5 2 1 NNE 1021,7 0,0
18.01.2020 01:00:00 7,9 3,0 0 0 E 1021,6 0,0
18.01.2020 00:00:00 8,0 2,7 8 4 E 1022,0 0,0
17.01.2020 23:00:00 8,3 2,3 11 6 E 1022,7 0,0
17.01.2020 22:00:00 9,1 1,7 10 5 ESE 1023,2 0,0
17.01.2020 21:00:00 - - - - - - -
17.01.2020 20:00:00 9,1 2,2 0 0 SE 1024,3 0,0
17.01.2020 19:00:00 9,3 1,9 0 0 E 1024,4 0,0
17.01.2020 18:00:00 9,4 2,0 1 1 SSO 1024,7 0,0
17.01.2020 17:00:00 - - - - - - -
17.01.2020 16:00:00 9,6 1,7 3 2 OSO 1024,6 0,0
17.01.2020 15:00:00 9,7 1,6 8 4 ONO 1024,8 0,0
17.01.2020 14:00:00 9,7 1,6 8 5 ONO 1025,1 0,0
17.01.2020 13:00:00 9,5 1,6 8 4 NO 1025,8 0,0
17.01.2020 12:00:00 8,0 1,2 16 9 ONO 1026,9 0,0
17.01.2020 11:00:00 6,6 1,5 8 5 O 1027,5 0,0
17.01.2020 10:00:00 3,8 0,7 8 4 ONO 1027,7 0,0
17.01.2020 09:00:00 2,3 0,2 6 4 O 1027,6 0,0
17.01.2020 08:00:00 3,0 0,2 8 5 SO 1027,5 0,0
17.01.2020 07:00:00 3,2 0,6 7 4 OSO 1027,6 0,0
17.01.2020 06:00:00 3,4 0,8 9 5 SO 1027,8 0,0
17.01.2020 05:00:00 3,8 1,3 8 5 OSO 1028,1 0,0
17.01.2020 04:00:00 4,5 2,0 14 7 O 1028,7 0,0
17.01.2020 03:00:00 4,5 2,0 13 7 O 1029,2 0,0
17.01.2020 02:00:00 4,6 2,0 12 6 O 1029,5 0,0
17.01.2020 01:00:00 4,4 1,9 9 5 OSO 1030,0 0,0
17.01.2020 00:00:00 3,8 1,7 10 5 OSO 1030,4 0,0
16.01.2020 23:00:00 3,9 1,9 6 3 O 1030,9 0,0
16.01.2020 22:00:00 4,9 2,6 8 4 SO 1031,1 0,0
16.01.2020 21:00:00 5,3 3,5 6 3 OSO 1031,5 0,0
16.01.2020 20:00:00 5,7 4,0 6 3 OSO 1031,6 0,0
16.01.2020 19:00:00 6,3 4,1 1 1 O 1031,5 0,0
16.01.2020 18:00:00 6,9 3,9 1 0 ONO 1031,4 0,0
16.01.2020 17:00:00 7,4 3,8 0 0 NO 1031,1 0,0
16.01.2020 16:00:00 7,9 3,6 4 2 NO 1031,2 0,0
16.01.2020 15:00:00 7,9 3,6 2 1 NNO 1031,5 0,0
16.01.2020 14:00:00 7,9 3,7 7 4 NNO 1031,9 0,0
16.01.2020 13:00:00 8,0 3,8 3 2 NO 1032,4 0,0
16.01.2020 12:00:00 7,5 3,5 5 3 ONO 1033,1 0,0
16.01.2020 11:00:00 7,2 2,9 0 0 NO 1033,5 0,0
16.01.2020 10:00:00 6,3 2,4 0 0 O 1033,4 0,0
16.01.2020 09:00:00 5,6 2,1 1 1 SSO 1033,1 0,0
16.01.2020 08:00:00 5,5 2,8 0 0 ESE 1032,6 0,0
16.01.2020 07:00:00 5,3 2,6 1 1 S 1031,9 0,0
16.01.2020 06:00:00 5,6 2,6 - - - - -
16.01.2020 05:00:00 5,8 3,1 - - - 1030,9 0,0
16.01.2020 04:00:00 6,0 3,8 1 1 OSO 1030,9 0,0
16.01.2020 03:00:00 5,7 3,7 7 4 SSO 1030,8 0,0
16.01.2020 02:00:00 5,7 3,4 5 3 OSO 1030,6 0,0
16.01.2020 01:00:00 5,8 4,0 4 2 O 1030,7 0,0
16.01.2020 00:00:00 6,0 4,0 0 0 O 1030,8 0,0

tt = Temperatura
td = dewpoint
ff = velocità del vento
dd = direzione del vento
ppp = reduced air pressure
rr = precipitazioni

Stazioni seguenti

WeatherPro
AMSI
MeteoEarth